This demonstration page uses our WeatherBlox Daily Observations layout. Learn more.

Hourly Observations for January 25, 2020

Temp ( °F °C ) Dew Point ( °F °C ) Humidity (%) Winds ( mph kmh ) Pressure ( in mb ) Visibility ( mi km ) Precip ( " mm )
12:15 am 00:15 Cloudy with Mist and Fog 24 -4.2 24 -4.3 99 99 SSW 5 7 30.18 1022 1.75 2.816345 0 0
12:35 am 00:35 Cloudy with Mist and Fog 25 -4 25 -4 100 100 SW 5 7 30.17 1022 1.5 2.41401 0 0
12:55 am 00:55 Cloudy with Mist and Fog 25 -4 25 -4 100 100 S 5 7 30.16 1021 0.75 1.207005 0 0
1:15 am 01:15 Cloudy with Mist and Fog 25 -4 25 -4 100 100 SSW 5 7 30.15 1021 0.75 1.207005 0 0
1:35 am 01:35 Cloudy with Freezing Fog 25 -4 25 -4 100 100 SW 3 6 30.15 1021 0.5 0.80467 0 0
1:55 am 01:55 Cloudy with Freezing Fog 25 -4.1 25 -4.1 100 100 SW 3 6 30.15 1021 0.5 0.80467 0 0
2:15 am 02:15 Cloudy with Freezing Fog 25 -4.1 25 -4.1 100 100 SW 3 6 30.14 1021 0.5 0.80467 0 0
2:35 am 02:35 Cloudy with Mist and Fog 24 -4.2 24 -4.2 100 100 SW 3 6 30.15 1021 0.75 1.207005 0 0
2:55 am 02:55 Cloudy with Mist and Fog 25 -4.1 25 -4.1 100 100 Calm 30.14 1021 0.75 1.207005 0 0
3:15 am 03:15 Cloudy with Mist and Fog 25 -3.8 25 -3.8 100 100 Calm 30.13 1020 2 3.21868 0 0
3:35 am 03:35 Cloudy with Mist and Fog 26 -3.5 26 -3.5 100 100 Calm 30.13 1020 5 8.0467 0 0
3:55 am 03:55 Cloudy 26 -3.2 26 -3.2 100 100 SSW 3 6 30.13 1020 10 16.0934 0 0
4:15 am 04:15 Cloudy 27 -2.8 27 -2.8 100 100 SSW 5 7 30.11 1020 10 16.0934 0 0
4:35 am 04:35 Cloudy 27 -2.8 27 -2.8 100 100 SSW 3 6 30.11 1020 10 16.0934 0 0
4:55 am 04:55 Partly Cloudy 26 -3.1 26 -3.1 100 100 Calm 30.11 1020 10 16.0934 0 0
5:15 am 05:15 Clear 26 -3.5 26 -3.5 100 100 SSW 3 6 30.12 1020 10 16.0934 0 0
5:35 am 05:35 Partly Cloudy 25 -3.7 25 -3.7 100 100 Calm 30.11 1020 10 16.0934 0 0
5:55 am 05:55 Partly Cloudy 25 -4 25 -4 100 100 Calm 30.11 1020 10 16.0934 0 0
6:15 am 06:15 Mostly Cloudy 25 -4 25 -4 100 100 S 3 6 30.11 1020 10 16.0934 0 0
6:35 am 06:35 Cloudy 26 -3.5 26 -3.5 100 100 SSW 5 7 30.11 1020 10 16.0934 0 0
6:55 am 06:55 Cloudy 26 -3.2 26 -3.2 100 100 SSW 3 6 30.11 1019 10 16.0934 0 0
7:15 am 07:15 Cloudy 27 -3 27 -3 100 100 SSW 3 6 30.1 1019 10 16.0934 0 0
7:35 am 07:35 Cloudy 27 -2.8 27 -2.8 100 100 SSW 3 6 30.1 1019 10 16.0934 0 0
7:55 am 07:55 Partly Cloudy 26 -3.2 26 -3.2 100 100 SSW 5 7 30.11 1019 10 16.0934 0 0
8:15 am 08:15 Partly Cloudy 26 -3.2 26 -3.2 100 100 S 3 6 30.11 1019 10 16.0934 0 0
8:35 am 08:35 Mostly Cloudy 27 -3 27 -3 100 100 SSW 6 9 30.1 1019 10 16.0934 0 0
8:55 am 08:55 Partly Cloudy 27 -2.8 27 -2.8 100 100 SSW 6 9 30.1 1019 10 16.0934 0 0
9:15 am 09:15 Sunny 27 -2.6 27 -2.6 100 100 SSW 5 7 30.1 1019 10 16.0934 0 0
9:35 am 09:35 Sunny 28 -2.1 28 -2.1 100 100 SSW 7 11 30.1 1019 10 16.0934 0 0
9:55 am 09:55 Sunny 29 -1.5 29 -1.5 100 100 SSW 7 11 30.09 1019 10 16.0934 0 0
10:15 am 10:15 Partly Cloudy 30 -1.3 30 -1.3 100 100 SSW 8 13 30.09 1019 10 16.0934 0 0
10:35 am 10:35 Sunny 30 -0.9 30 -0.9 100 100 SSW 9 15 30.09 1019 10 16.0934 0 0
10:55 am 10:55 Sunny 31 -0.5 31 -0.5 100 100 SW 6 9 30.1 1019 10 16.0934 0 0
11:15 am 11:15 Partly Cloudy 32 0 32 0 100 100 SW 7 11 30.09 1019 10 16.0934 0 0
11:35 am 11:35 Partly Cloudy 33 0.5 32 0 96 96 SW 6 9 30.09 1019 10 16.0934 0 0
11:55 am 11:55 Partly Cloudy 34 1.1 32 0.2 94 94 SW 8 13 30.07 1018 10 16.0934 0 0
12:15 pm 12:15 Partly Cloudy 34 1.3 33 0.3 93 93 SSW 6 9 30.06 1018 10 16.0934 0 0
12:35 pm 12:35 Partly Cloudy 35 1.7 33 0.5 92 92 SW 6 9 30.05 1018 10 16.0934 0 0
12:55 pm 12:55 Sunny 37 2.5 33 0.7 88 88 SW 7 11 30.03 1017 10 16.0934 0 0
1:15 pm 13:15 Sunny 38 3.3 35 1.5 88 88 SW 7 11 30 1016 10 16.0934 0 0
1:35 pm 13:35 Sunny 38 3.5 35 1.6 88 88 SW 7 11 29.99 1016 10 16.0934 0 0
1:55 pm 13:55 Sunny 39 3.8 35 1.9 88 88 SW 8 13 29.99 1016 10 16.0934 0 0
2:15 pm 14:15 Sunny 40 4.2 35 1.9 85 85 WSW 8 13 29.99 1015 10 16.0934 0 0
2:35 pm 14:35 Sunny 40 4.6 36 2.1 84 84 SW 7 11 29.97 1015 10 16.0934 0 0
2:55 pm 14:55 Sunny 40 4.3 35 1.8 84 84 SW 7 11 29.97 1015 10 16.0934 0 0
3:15 pm 15:15 Sunny 41 5 37 2.6 85 85 SW 7 11 29.96 1014 10 16.0934 0 0
3:35 pm 15:35 Sunny 42 5.3 37 2.5 82 82 Calm 29.96 1014 10 16.0934 0 0
3:55 pm 15:55 Sunny 43 6.2 37 2.8 79 79 WSW 3 6 29.96 1014 10 16.0934 0 0
4:15 pm 16:15 Sunny 44 6.6 37 2.8 77 77 WSW 5 7 29.95 1014 10 16.0934 0 0
4:35 pm 16:35 Sunny 44 6.5 38 3.1 79 79 WSW 3 6 29.95 1014 10 16.0934 0 0
4:55 pm 16:55 Sunny 44 6.9 37 2.7 75 75 SW 3 6 29.95 1014 10 16.0934 0 0
5:15 pm 17:15 Sunny 43 6 37 2.5 78 78 SW 5 7 29.97 1015 10 16.0934 0 0
5:35 pm 17:35 Sunny 41 5.2 36 2.2 81 81 SW 3 6 29.98 1015 10 16.0934 0 0
5:55 pm 17:55 Clear 40 4.5 36 2 84 84 SW 5 7 29.98 1015 10 16.0934 0 0
6:15 pm 18:15 Clear 39 3.9 35 1.8 86 86 Calm 30 1016 10 16.0934 0 0
6:35 pm 18:35 Clear 38 3.3 35 1.7 89 89 Calm 30 1016 10 16.0934 0 0
6:55 pm 18:55 Clear 37 2.9 35 1.4 90 90 Calm 30.01 1016 10 16.0934 0 0
7:15 pm 19:15 Clear 35 1.7 33 0.8 94 94 W 3 6 30.04 1017 10 16.0934 0 0
7:35 pm 19:35 Clear 36 2.3 34 0.9 91 91 Calm 30.03 1017 10 16.0934 0 0
7:55 pm 19:55 Partly Cloudy 34 1.2 32 0.2 93 93 Calm 30.04 1017 10 16.0934 0 0
8:15 pm 20:15 Cloudy 33 0.6 32 0 96 96 Calm 30.05 1018 10 16.0934 0 0
8:35 pm 20:35 Cloudy 36 2 34 1.1 94 94 Calm 30.03 1017 10 16.0934 0 0
8:55 pm 20:55 Cloudy 35 1.4 32 0.1 91 91 W 3 6 30.04 1017 10 16.0934 0 0
9:15 pm 21:15 Cloudy 35 1.6 33 0.5 93 93 Calm 30.04 1017 10 16.0934 0 0
9:35 pm 21:35 Mostly Cloudy 35 1.5 32 0.1 91 91 W 5 7 30.05 1018 10 16.0934 0 0
9:55 pm 21:55 Cloudy 36 2 33 0.3 89 89 W 6 9 30.05 1017 10 16.0934 0 0
10:15 pm 22:15 Cloudy 37 2.7 33 0.5 86 86 W 7 11 30.05 1018 10 16.0934 0 0
10:35 pm 22:35 Cloudy 38 3.1 33 0.6 84 84 W 6 9 30.05 1017 10 16.0934 0 0
10:55 pm 22:55 Partly Cloudy 34 1.3 32 0 91 91 WNW 5 7 30.07 1018 10 16.0934 0 0
11:15 pm 23:15 Mostly Cloudy 34 1 32 0 93 93 W 6 9 30.07 1018 10 16.0934 0 0
11:35 pm 23:35 Cloudy 34 1.2 32 0 92 92 W 3 6 30.06 1018 10 16.0934 0 0
11:55 pm 23:55 Cloudy 34 1 32 0 93 93 WNW 5 7 30.08 1018 10 16.0934 0 0

Powered by AerisWeather